Location: *
(49.4547°N, 7.9131°E)
Time: 14:08:42
(UTC+00:00)

ERBS - Pass Details

Date: 22 September 2019
Orbit: 417 x 425 km, 57.0° (Epoch: 19 October)

Event Time Altitude Azimuth Distance (km) Brightness Sun altitude
Rises 19:21:48 0° 301° (WNW) 2,395 7.7 -18.9°
Reaches altitude 10° 19:23:57 10° 296° (WNW) 1,525 6.3 -19.2°
Maximum altitude 19:27:14 47° 221° (SW) 571 2.9 -19.7°
Enters shadow 19:27:37 45° 198° (SSW) 593 2.9 -19.8°
